0 HST 1 20580U 90037B 26168.14321654 .00005620 00000-0 17616-3 0 9990 2 20580 28.4720 80.8753 0001816 141.8279 218.2446 15.30747004788561 0 ISS (ZARYA) 1 25544U 98067A 26168.18949189 .00009113 00000-0 17172-3 0 9997 2 25544 51.6332 300.0813 0004737 195.1146 164.9702 15.49273435571752 0 CXO 1 25867U 99040B 26169.37713324 .00000529 00000-0 00000-0 0 9990 2 25867 56.2189 116.5542 7835469 310.3049 0.1821 0.37804062 17322